ROMMA est une association bénévole à but non lucratif. Votre soutien est indispensable : ADHERER à ROMMA ou FAIRE un DON

Voiron - (38, Isère)

Voironnais (300 m)   Longitude: 05° 35' E   Latitude: 45° 23' N Station partenaire n°109
 

Détail journalier du     <<     >>

Température Precipitation Humidité Pression Vent Dir Rafale Dir. rafale Ensol.
Heure (°C) (mm) (%) (hPa) (km/h) (km/h) (min)
01:00 13.408210182NNE8NO0
02:00 12.508510182NO11NO0
03:00 11.808810182NO5NNO0
04:00 12.108810191NO5NO0
05:00 12.708710181NO5NO0
06:00 12.808710181NO5NO0
07:00 12.208710182SE11ESE0
08:00 11.908710182SSE8S0
09:00 12.608510183SE13SSE0
10:00 14.407910192S8SSE30
11:00 14.807710196S15SSE60
12:00 16.407210194S11S60
13:00 17.306710184SO16NNO30
14:00 17.706310186NNO18NE0
15:00 17.606910175NE19ENE0
16:00 17.206910175ENE15ENE0
17:00 16.907310164ENE13ENE0
18:00 16.307810164NE13ENE0
19:00 15.108310162N10E0
20:00 13.91.28610162E11ESE0
21:00 13.6090101503E0
22:00 13.21.28610168N35N0
23:00 12.40.89110188SSE27NNO0
minuit 12.40.69310182SSE11SE0

Graphique du 06-10-2019

 

Serveur OMMA